[[{"header":{"parameterUnit":"m.s-1","parameterCategory":1,"la1":30.2991,"la2":30.254,"lo1":-89.0895,"lo2":-89.0444,"dy":0.0017,"dx":0.0017,"nx":28,"ny":28,"refTime":"2023-04-26T15:00:00:Z","depth":0,"parameterNumber":2,"parameterNumberName":"U-component_of_WINDS"},"data":[0,0,0,0,0,0,0,0,0,0,0,0,0,0,0,0,0,0,0,0,0,0,0,0,0,0,0,0,0,0,0,0,0,0,0,0,0,0,0,0,0,0,0,0,0,0,0,0,0,0,0,0,0,0,0,0,0,0,-4.3265,-4.3266,0,-4.33,-4.3301,-4.3301,-4.3225,-4.3223,-4.322,-4.3218,-4.3252,-4.3255,-4.3259,0,0,0,0,0,0,0,0,0,0,0,0,0,-4.3132,-4.3135,-4.3265,-4.3266,-4.3266,-4.33,-4.3301,-4.3301,-4.3226,-4.3223,-4.322,-4.3217,-4.3251,-4.3255,-4.3259,0,0,0,0,0,0,0,0,0,0,0,0,0,-4.3181,-4.3136,-4.3265,-4.3232,-4.323,-4.33,-4.3301,-4.3301,-4.3226,-4.3222,-4.3219,-4.3215,-4.325,-4.3255,-4.3259,-4.3363,0,0,-4.3274,-4.3276,0,0,0,0,0,0,0,0,-4.3178,-4.3186,-4.3237,-4.3235,-4.3232,-4.3255,-4.3266,-4.3322,-4.3227,-4.3228,-4.3218,-4.3214,-4.3256,-4.326,-4.3275,-4.3364,-4.3366,-4.3274,-4.3277,-4.3279,-4.3281,0,0,0,0,0,0,0,-4.3175,-4.3184,-4.3279,-4.3238,-4.3235,-4.3216,-4.3219,-4.3277,-4.3262,-4.3227,-4.3222,-4.3227,-4.3254,-4.327,-4.3275,-4.3366,-4.3274,-4.3279,-4.3282,-4.3283,-4.3543,-4.3547,0,0,0,0,0,0,-4.3176,-4.3182,-4.3278,-4.328,-4.3196,-4.3221,-4.3225,-4.3251,-4.3261,-4.3259,-4.323,-4.3223,-4.3264,-4.3269,-4.3276,-4.3397,-4.3279,-4.3284,-4.3287,-4.3539,-4.3544,-4.3548,0,0,0,0,0,0,-4.3173,-4.3185,-4.3276,-4.3229,-4.324,-4.3228,-4.3258,-4.3254,-4.327,-4.3263,-4.326,-4.3249,-4.3261,-4.3269,-4.3342,-4.3397,-4.3286,-4.329,-4.3534,-4.354,-4.3546,-4.364,0,0,0,0,0,0,-4.317,-4.3185,-4.3224,-4.3231,-4.3242,-4.3342,-4.3261,-4.3257,-4.3279,-4.327,-4.3281,-4.3279,-4.3259,-4.3335,-4.3347,-4.3401,-4.3294,-4.3529,-4.3537,-4.3544,-4.3631,-4.3648,-4.3662,0,0,0,0,0,-4.3165,-4.3248,-4.3226,-4.3238,-4.3291,-4.3345,-4.3352,-4.3328,-4.3283,-4.3322,-4.3318,-4.3278,-4.339,-4.3343,-4.3355,-4.3413,-4.3525,-4.3535,-4.3543,-4.3625,-4.3645,-4.3662,0,0,0,0,0,0,-4.3246,-4.3248,-4.3224,-4.3311,-4.3329,-4.3332,-4.338,-4.335,-4.338,-4.337,-4.3339,-4.3342,-4.3421,-4.3424,-4.3372,-4.3513,-4.345,-4.3462,-4.3507,-4.3527,-4.3542,-4.3538,-4.3298,0,0,0,0,0,-4.3275,-4.3319,-4.3318,-4.3396,-4.3406,-4.3393,-4.3415,-4.3396,-4.3412,-4.3419,-4.342,-4.3437,-4.3476,-4.3502,-4.3537,-4.3633,-4.3634,-4.3679,-4.3694,-4.3707,-4.3716,-4.3767,-4.3786,-4.3578,-4.3578,-4.3577,0,0,-4.3333,-4.334,-4.3369,-4.3412,-4.3423,-4.347,-4.3399,-4.3451,-4.3485,-4.3426,-4.3494,-4.3497,-4.3514,-4.3599,-4.3636,-4.3604,-4.3775,-4.3718,-4.3728,-4.3731,-4.3778,-4.3798,-4.3816,-4.3584,-4.3583,-4.3582,0,0,-4.3462,-4.3472,-4.3538,-4.3551,-4.357,-4.356,-4.3577,-4.3586,-4.3585,-4.3654,-4.3611,-4.3651,-4.3719,-4.3733,-4.3749,-4.3888,-4.3852,-4.39,-4.3979,-4.4029,-4.4045,-4.406,-4.4108,-4.4125,-4.3911,-4.3911,-4.3911,0,-4.3531,-4.36,-4.3575,-4.363,-4.365,-4.3602,-4.3668,-4.3682,-4.3711,-4.3726,-4.3691,-4.3775,-4.3784,-4.3871,-4.3905,-4.392,-4.3937,-4.3897,-4.4045,-4.406,-4.4073,-4.4118,-4.4136,-4.3917,-4.3916,-4.3915,-4.3915,0,-4.3684,-4.3732,-4.3783,-4.3813,-4.384,-4.39,-4.3885,-4.3915,-4.3894,-4.3889,-4.396,-4.3969,-4.4005,-4.4025,-4.4005,-4.411,-4.4089,-4.4051,-4.3985,-4.4098,-4.414,-4.4158,-4.3925,-4.3923,-4.3921,-4.392,0,0,-4.3861,-4.3879,-4.3898,-4.3911,-4.393,-4.3966,-4.4026,-4.4062,-4.4088,-4.4111,-4.4159,-4.4219,-4.4183,-4.4202,-4.4183,-4.4228,-4.4335,-4.4183,-4.4183,-4.4209,-4.4451,-4.4478,-4.4498,-4.4313,-4.4317,-4.4319,-4.4448,0,-4.3988,-4.4089,-4.407,-4.4168,-4.4212,-4.4169,-4.422,-4.4237,-4.4235,-4.4272,-4.4269,-4.4312,-4.4263,-4.4273,-4.4316,-4.4313,-4.4383,-4.4304,-4.4356,-4.4358,-4.435,-4.452,-4.4549,-4.467,-4.4465,-4.4468,-4.447,0,-4.4147,-4.4177,-4.4281,-4.4293,-4.4311,-4.4357,-4.439,-4.4427,-4.4445,-4.4441,-4.4463,-4.4437,-4.4496,-4.4433,-4.4513,-4.446,-4.4481,-4.4484,-4.4488,-4.4489,-4.4418,-4.4524,-4.4708,-4.4726,-4.4496,-4.4494,-4.4492,0,-4.4264,-4.433,-4.4401,-4.4414,-4.4431,-4.4464,-4.4473,-4.4488,-4.4512,-4.4541,-4.4556,-4.4592,-4.4611,-4.4639,-4.4623,-4.4579,-4.4706,-4.4642,-4.4702,-4.4703,-4.4728,-4.4726,-4.4916,-4.4747,-4.4746,-4.4746,-4.4746,0,-4.4405,-4.447,-4.4453,-4.4496,-4.4567,-4.4546,-4.4617,-4.462,-4.4635,-4.4678,-4.4644,-4.4684,-4.4662,-4.4702,-4.4691,-4.4758,-4.4768,-4.4765,-4.476,-4.4766,-4.4766,-4.4777,-4.4767,-4.4751,-4.475,-4.4749,-4.4748,0,-4.4546,-4.4537,-4.4611,-4.4622,-4.4626,-4.4678,-4.4687,-4.4728,-4.4724,-4.4779,-4.4791,-4.4785,-4.483,-4.4818,-4.4867,-4.4859,-4.4944,-4.493,-4.4937,-4.4933,-4.4993,-4.4987,-4.5194,-4.5219,-4.5036,-4.5038,-4.504,0,-4.4635,-4.4683,-4.47,-4.4727,-4.4739,-4.4782,-4.4806,-4.4788,-4.4815,-4.4842,-4.4879,-4.4921,-4.4953,-4.5027,-4.5027,-4.5064,-4.505,-4.512,-4.5055,-4.5059,-4.5048,-4.5044,-4.5049,-4.5132,-4.5134,-4.5136,-4.5137,0,-4.4793,-4.4788,-4.4824,-4.4861,-4.4891,-4.4919,-4.4943,-4.4967,-4.4951,-4.4983,-4.5029,-4.5054,-4.5105,-4.5147,-4.5182,-4.519,-4.5161,-4.5158,-4.5174,-4.5178,-4.518,-4.5178,-4.497,-4.5153,-4.5151,-4.515,-4.5149,-4.5148,-4.4909,-4.495,-4.4969,-4.5012,-4.5029,-4.5053,-4.5091,-4.5093,-4.5132,-4.5171,-4.5159,-4.5211,-4.5231,-4.5275,-4.5288,-4.5329,-4.5302,-4.5325,-4.533,-4.5335,-4.5342,-4.5176,-4.5335,-4.5335,-4.5334,-4.5334,-4.5334,0,-4.5064,-4.5075,-4.5114,-4.515,-4.5184,-4.5156,-4.5182,-4.5212,-4.5258,-4.5279,-4.5313,-4.5366,-4.5407,-4.5412,-4.5451,-4.5482,-4.547,-4.5493,-4.5489,-4.5491,-4.5364,-4.5346,-4.5502,-4.5502,-4.5502,-4.5502,-4.5502,-4.5502,-4.5148,-4.5216,-4.5214,-4.529,-4.53,-4.5352,-4.5369,-4.5391,-4.5408,-4.5469,-4.5503,-4.5507,-4.5521,-4.5561,-4.5598,-4.5598,-4.5613,-4.5641,-4.5636,-4.5517,-4.55,-4.5484,-4.5466,-4.5645,-4.5645,-4.5759,-4.576,-4.5761]},{"header":{"parameterUnit":"m.s-1","parameterCategory":1,"la1":30.2991,"la2":30.254,"lo1":-89.0895,"lo2":-89.0444,"dy":0.0017,"dx":0.0017,"nx":28,"ny":28,"refTime":"2023-04-26T15:00:00:Z","depth":0,"parameterNumber":3,"parameterNumberName":"V-component_of_WINDS"},"data":[0,0,0,0,0,0,0,0,0,0,0,0,0,0,0,0,0,0,0,0,0,0,0,0,0,0,0,0,0,0,0,0,0,0,0,0,0,0,0,0,0,0,0,0,0,0,0,0,0,0,0,0,0,0,0,0,0,0,2.2723,2.2723,0,2.278,2.2781,2.2781,2.2824,2.2825,2.2825,2.2826,2.288,2.2881,2.2882,0,0,0,0,0,0,0,0,0,0,0,0,0,2.2647,2.2648,2.2723,2.2723,2.2724,2.278,2.2781,2.2782,2.2824,2.2825,2.2825,2.2826,2.288,2.2881,2.2882,0,0,0,0,0,0,0,0,0,0,0,0,0,2.269,2.2649,2.2723,2.2752,2.2756,2.278,2.2781,2.2782,2.2824,2.2825,2.2826,2.2826,2.2879,2.2881,2.2883,2.2881,0,0,2.2888,2.2888,0,0,0,0,0,0,0,0,2.2687,2.2692,2.2747,2.275,2.2754,2.2796,2.2774,2.2815,2.2824,2.2798,2.2826,2.2826,2.2851,2.2855,2.2865,2.2883,2.2885,2.2888,2.2889,2.2889,2.289,0,0,0,0,0,0,0,2.2684,2.269,2.2745,2.2748,2.2752,2.2762,2.2769,2.2782,2.282,2.28,2.2804,2.281,2.2853,2.2863,2.2866,2.2886,2.2888,2.2889,2.289,2.2891,2.2908,2.2907,0,0,0,0,0,0,2.2677,2.2687,2.2743,2.2747,2.2722,2.2763,2.277,2.2782,2.2821,2.2827,2.281,2.2812,2.286,2.2864,2.2868,2.287,2.2889,2.2891,2.2892,2.2908,2.2907,2.2907,0,0,0,0,0,0,2.2675,2.2682,2.2741,2.2718,2.2727,2.2764,2.2776,2.2783,2.2792,2.2828,2.2834,2.2813,2.2861,2.2866,2.2878,2.2872,2.2892,2.2893,2.2909,2.2908,2.2907,2.2871,0,0,0,0,0,0,2.2673,2.2681,2.2681,2.2718,2.2728,2.275,2.2776,2.2783,2.2796,2.2799,2.2832,2.2838,2.2861,2.2875,2.2879,2.2875,2.2894,2.2909,2.2908,2.2907,2.2873,2.2869,2.2866,0,0,0,0,0,2.267,2.2667,2.2681,2.2687,2.2729,2.275,2.2755,2.2784,2.2795,2.2795,2.2818,2.2837,2.2872,2.2876,2.2881,2.2877,2.291,2.2909,2.2907,2.2875,2.287,2.2866,0,0,0,0,0,0,2.2626,2.2673,2.2688,2.2697,2.272,2.2757,2.2758,2.2778,2.2796,2.2798,2.2831,2.2838,2.2847,2.2863,2.2867,2.2878,2.2893,2.2893,2.2867,2.2863,2.2859,2.2855,2.2896,0,0,0,0,0,2.2618,2.2633,2.2672,2.2676,2.2687,2.2721,2.2731,2.2751,2.2775,2.2784,2.2808,2.2829,2.2845,2.2855,2.2871,2.2876,2.2884,2.2875,2.2872,2.2869,2.2868,2.2873,2.2869,2.2903,2.2903,2.2903,0,0,2.2601,2.2628,2.2634,2.2668,2.2688,2.2702,2.2728,2.2741,2.2751,2.2785,2.2799,2.2817,2.2843,2.2852,2.2856,2.2865,2.2861,2.2867,2.2865,2.2866,2.2871,2.2868,2.2865,2.2902,2.2902,2.2902,0,0,2.2576,2.2598,2.2605,2.2624,2.2655,2.2678,2.2679,2.2715,2.2729,2.2743,2.2769,2.2782,2.2808,2.2826,2.2839,2.2823,2.2841,2.2827,2.2809,2.2813,2.281,2.2808,2.2803,2.28,2.2827,2.2827,2.2826,0,2.255,2.2573,2.2605,2.2617,2.2631,2.2665,2.2672,2.2689,2.2723,2.2731,2.2741,2.2777,2.2796,2.281,2.2807,2.2816,2.2818,2.2823,2.2808,2.2806,2.2805,2.28,2.2798,2.2825,2.2825,2.2825,2.2825,0,2.254,2.2555,2.2557,2.2591,2.2605,2.2614,2.2647,2.2658,2.2677,2.2699,2.2713,2.2738,2.2761,2.2766,2.2784,2.2783,2.2788,2.2802,2.2819,2.2799,2.2795,2.2794,2.2822,2.2823,2.2823,2.2824,0,0,2.2487,2.2541,2.2541,2.2557,2.2594,2.2606,2.2617,2.2642,2.265,2.2672,2.2682,2.2705,2.272,2.2734,2.2755,2.2758,2.2745,2.2773,2.2774,2.2767,2.2746,2.2734,2.2732,2.2758,2.2758,2.2757,2.2744,0,2.2468,2.2492,2.2522,2.2535,2.255,2.2583,2.2593,2.2616,2.2637,2.2652,2.2674,2.269,2.2708,2.2717,2.2722,2.2745,2.2741,2.2747,2.2767,2.2767,2.2759,2.273,2.2717,2.2703,2.2742,2.2742,2.2742,0,2.2449,2.2472,2.2487,2.2524,2.2532,2.254,2.2565,2.258,2.2607,2.2622,2.2639,2.2662,2.2675,2.269,2.2708,2.2711,2.2721,2.2734,2.2734,2.2737,2.2753,2.2731,2.2699,2.2697,2.274,2.274,2.274,0,2.241,2.2445,2.2458,2.2471,2.2515,2.252,2.2538,2.2567,2.258,2.2602,2.261,2.2633,2.2645,2.2661,2.2689,2.2698,2.2705,2.2722,2.2717,2.2716,2.2716,2.2716,2.2685,2.2723,2.2723,2.2723,2.2723,0,2.2386,2.2394,2.2442,2.245,2.246,2.2495,2.2503,2.2524,2.2549,2.2561,2.2591,2.2602,2.2638,2.2653,2.2675,2.2687,2.2692,2.2704,2.271,2.2702,2.27,2.2708,2.271,2.2722,2.2722,2.2722,2.2723,0,2.2344,2.2376,2.2394,2.2435,2.2445,2.2451,2.2485,2.2494,2.2518,2.2533,2.2539,2.2575,2.2594,2.2624,2.2652,2.2667,2.2675,2.2684,2.2666,2.2669,2.2663,2.2663,2.2636,2.2634,2.2673,2.2672,2.2672,0,2.2326,2.2333,2.2376,2.2387,2.2405,2.2423,2.2437,2.2472,2.2485,2.2518,2.2523,2.2545,2.2565,2.2594,2.2622,2.2643,2.2654,2.2643,2.2657,2.2649,2.2654,2.2653,2.2654,2.2639,2.2638,2.2638,2.2638,0,2.2291,2.2308,2.2328,2.2355,2.2372,2.2393,2.2417,2.2424,2.2464,2.2477,2.2499,2.2514,2.2543,2.2565,2.2591,2.2608,2.2629,2.2633,2.2633,2.2625,2.2614,2.262,2.2657,2.2633,2.2634,2.2634,2.2634,2.2635,2.2261,2.227,2.2302,2.2324,2.2345,2.2367,2.2378,2.2404,2.2423,2.2451,2.247,2.249,2.2518,2.2555,2.2572,2.2588,2.2597,2.2596,2.2596,2.2596,2.2593,2.2612,2.2592,2.2593,2.2593,2.2593,2.2593,0,2.2229,2.2251,2.2271,2.2304,2.2322,2.2342,2.2369,2.2382,2.24,2.2425,2.2445,2.247,2.2491,2.2521,2.2545,2.2552,2.2562,2.2557,2.2556,2.256,2.2583,2.2581,2.2548,2.2548,2.2548,2.2548,2.2548,2.2548,2.2214,2.223,2.225,2.2277,2.2299,2.2321,2.2335,2.2354,2.2375,2.2402,2.2421,2.2441,2.2469,2.2495,2.2515,2.2524,2.2531,2.2522,2.2534,2.2554,2.2558,2.2562,2.2561,2.2524,2.2524,2.2509,2.2509,2.2509]}]]